Погода в Пуэрто-Кабельо

Венесуэла     10°28′17″N   68°01′09″W
темп.,
°C
ветер,
м/с
пор.,
м/с
влажн.,
%
обл.,
%
осадки,
мм/ч
давл.,
гПа
погр.,
м
9 марта, вт
вт923:00+25всв6984100 0.2 1016767
02:00+25всв61082100 0.4 1014939
05:00+25всв7108182 0.3 1014974
08:00+25всв6107951 0.4 1016992
11:00+25св777997 0.1 1017793
14:00+25св898058 0.1 1013647
17:00+25всв798035 0.1 1011841
20:00+25всв698267 0.2 1013928
10 марта, ср
ср1023:00+25всв698178 0.3 1015868
02:00+24всв678155 0.3 1014920
05:00+24всв4776100 0.1 1013885
08:00+24всв3774100 0.1 1015850
11:00+24ссв237261 0.0 1015358
14:00+24св557981 0.0 1012409
17:00+24всв7885100 0.0 1010663
20:00+24всв4778100 0.1 1012709
11 марта, чт
чт1123:00+24всв468221 0.0 1014709
02:00+24всв568259 0.1 1013759
05:00+24всв468052 0.1 1012746
08:00+24в248071 0.2 1014539
11:00+23ссв23822 0.0 1014270
14:00+22всв44958 0.0 1011236
17:00+24св678645 0.0 1009450
20:00+24всв588426 0.1 1011722
12 марта, пт
пт1223:00+24всв478431 0.1 1013665
02:00+24св258130 0.1 1013708
05:00+24в248343 0.1 1012581
08:00+24в138141 0.1 1014568
11:00+23ссв128638 0.0 1015251
14:00+23всв339239 0.0 1011237
17:00+24св568927 0.0 1010389
20:00+23всв258937 0.1 1012452
13 марта, сб
сб1323:00+23в268971 0.1 1014482
02:00+23в258558 0.2 1013528
05:00+24в148571 0.1 1012489
08:00+24всв138478 0.4 1014427
11:00+24всв128658 0.1 1015263
14:00+23св449158 0.1 1011280
17:00+24св459045 0.0 1010397
20:00+23всв469064 0.1 1012461